Location: Villingen
(48.0639°N, 8.4609°E)
Time: 02:11:15
(UTC+01:00)

ISS - Pass Details

Date: 12 January 2018
Orbit: 401 x 406 km, 51.6° (Epoch: 17 January)

Event Time Altitude Azimuth Distance (km) Brightness Sun altitude
Exits shadow 06:24:54 52° 255° (WSW) 509 -3.7 -17.5°
Maximum altitude 06:25:25 63° 208° (SSW) 458 -3.7 -17.4°
Drops below altitude 10° 06:28:39 10° 127° (SE) 1,461 0.0 -16.9°
Sets 06:30:45 0° 124° (SE) 2,319 1.4 -16.5°
